• Join FlightAware (Why Join?)
  • Login
  • US Flag 
04:13PM EST


 

Airport Tracker/Info


-or-


 

Live Flight TrackerFlight Track Log ✈ EJA947 ✈ 16-Apr-2013 ✈ KBOS - KTEB

Flight Track Log - Related Links

Times and Time Zones

All times are in EDT time to prevent confusion due to time zone crossing. See the EJA947 flight status page for this flight to view local times or setup timezone preferences in your user account.

Time Position Orientation Groundspeed Altitude Reporting Facility
EDT Latitude Longitude Course Direction KTS MPH feet Rate Location/Type
04:40PM 42.3667 -71.0167 160° South 141 162 900  Level KA90
04:40PM 42.3333 -71.0000 160° South 200 230 3,400 3,649 Climbing KA90
04:41PM 42.3167 -70.9167 105° East 300 345 6,800 3,550 Climbing KA90
04:42PM 42.3333 -70.8000 79° East 322 371 10,500 3,450 Climbing KA90
04:43PM 42.2833 -70.7167 129° Southeast 291 335 13,700 1,545 Climbing KA90
04:45PM 42.1942 -70.7672 203° Southwest 283 326 13,900 136 Climbing Boston Center
04:46PM 42.1686 -70.8686 251° West 257 296 14,000 677 Climbing Boston Center
04:47PM 42.1681 -70.9836 270° West 311 358 15,400 902 Climbing Boston Center
04:48PM 42.1700 -71.1486 271° West 368 423 16,000 645 Climbing Boston Center
04:49PM 42.1717 -71.3083 271° West 388 447 16,700 504 Climbing Boston Center
04:50PM 42.1689 -71.4428 268° West 393 452 17,000 300 Climbing Boston Center
04:51PM 42.1700 -71.5886 271° West 399 459 17,300 1,082 Climbing Boston Center
04:52PM 42.1711 -71.7539 271° West 407 468 19,200 1,210 Climbing Boston Center
04:53PM 42.1700 -71.9050 269° West 407 468 19,700 100 Climbing Boston Center
04:54PM 42.1683 -72.0228 269° West 407 468 19,400 -958 Descending Boston Center
04:55PM 42.1667 -72.1992 269° West 396 456 17,800 -1,109 Descending Boston Center
04:56PM 42.1647 -72.3392 269° West 396 456 17,200 -800 Descending Boston Center
04:57PM 42.1650 -72.4764 270° West 376 433 16,200 -555 Descending Boston Center
04:58PM 42.1628 -72.6108 269° West 365 420 16,100 -50 Descending Boston Center
04:59PM 42.1625 -72.7286 270° West 370 426 16,100 -49 Level Boston Center
05:00PM 42.1494 -72.8967 264° West 377 434 16,000 -49 Descending Boston Center
05:01PM 42.1425 -73.0253 266° West 389 448 16,000  Level Boston Center
05:02PM 42.1333 -73.1792 265° West 389 448 16,000  Level Boston Center
05:03PM 42.1239 -73.3161 265° West 383 441 16,000 -50 Level Boston Center
05:04PM 42.1125 -73.4447 263° West 383 441 15,900 -50 Descending Boston Center
05:05PM 42.1028 -73.5817 265° West 383 441 15,900  Level Boston Center
05:06PM 42.0908 -73.7297 264° West 383 441 15,900 50 Level Boston Center
05:07PM 42.0581 -73.8494 250° West 372 428 16,000 50 Climbing Boston Center
05:08PM 41.9672 -73.9564 221° Southwest 377 434 16,000 -50 Level Boston Center
05:09PM 41.8972 -74.0383 221° Southwest 383 441 15,900 -864 Descending Boston Center
05:10PM 41.8294 -74.1144 220° Southwest 353 406 14,300 -1,664 Descending Boston Center
05:11PM 41.7636 -74.1908 221° Southwest 306 352 12,600 -1,475 Descending Boston Center
05:12PM 41.7106 -74.2506 220° Southwest 288 331 11,300 -1,377 Descending Boston Center
05:13PM 41.6533 -74.3183 222° Southwest 267 307 9,800 -1,424 Descending Boston Center
05:14PM 41.6044 -74.3725 220° Southwest 262 302 8,500 -1,373 Descending Boston Center
05:15PM 41.5469 -74.4372 220° Southwest 262 302 7,100 -738 Descending Boston Center
05:16PM 41.5022 -74.4883 221° Southwest 252 290 7,000 -454 Descending Boston Center
05:17PM 41.4469 -74.5531 221° Southwest 247 284 6,200 -575 Descending Boston Center
05:19PM 41.3333 -74.6000 197° South 265 305 5,400 -746 Descending New York TRACON
05:20PM 41.2667 -74.5333 143° Southeast 268 308 4,100 -1,101 Descending New York TRACON
05:20PM 41.2500 -74.4833 114° Southeast 250 288 3,400 -522 Descending New York TRACON
05:21PM 41.2000 -74.3833 124° Southeast 266 306 3,100 -143 Descending New York TRACON
05:22PM 41.1667 -74.3167 124° Southeast 254 292 3,100  Level New York TRACON
05:23PM 41.1167 -74.2333 129° Southeast 257 296 3,100  Level New York TRACON
05:24PM 41.0833 -74.1667 124° Southeast 216 249 3,100 -350 Level New York TRACON
05:25PM 41.0667 -74.1167 114° Southeast 186 214 2,400 -500 Descending New York TRACON
05:26PM 41.0333 -74.0667 131° Southeast 174 200 2,100 -150 Descending New York TRACON
05:27PM 40.9833 -74.0500 166° South 162 186 2,100 -150 Level New York TRACON
05:28PM 40.9333 -74.0500 180° South 152 175 1,800 -500 Descending New York TRACON
05:29PM 40.9000 -74.0500 180° South 120 138 1,100 -667 Descending New York TRACON
05:31PM 40.8667 -74.0667 201° Southwest 117 135 400 -636 Descending New York TRACON
05:33PM 40.8500 -74.0500 114° Southeast  Level FlightAware Approximate
05:40PM 40.8501 -74.0608 114° Southeast  Level Estimated